[[{"header":{"parameterUnit":"m.s-1","parameterCategory":1,"la1":30.2992,"la2":30.254,"lo1":-89.0895,"lo2":-89.0443,"dy":0.0025,"dx":0.0025,"nx":19,"ny":19,"refTime":"2026-04-26T09:00:00:Z","depth":0,"parameterNumber":2,"parameterNumberName":"U-component_of_WINDS"},"data":[0,0,0,-2.1292,-2.1291,-2.1249,-2.1248,-2.1203,-2.1203,0,0,0,0,0,0,0,0,0,0,0,-2.1312,-2.1312,-2.1292,-2.1291,-2.1249,-2.1248,-2.1204,-2.1203,0,0,0,0,0,0,0,0,0,0,0,-2.1312,-2.1312,-2.1311,-2.1291,-2.1249,-2.1248,-2.1204,-2.1232,0,0,0,0,0,0,0,0,0,0,-2.1272,-2.1297,-2.1312,-2.1311,-2.1291,-2.1249,-2.1248,-2.1233,-2.123,-2.1227,0,-2.1228,0,-2.1215,-2.1201,-2.1201,0,0,0,-2.1286,-2.1299,-2.1282,-2.1311,-2.1291,-2.1249,-2.1266,-2.1231,-2.1228,-2.1224,-2.1227,-2.1225,-2.1214,-2.1201,-2.1201,-2.1207,-2.1207,0,0,-2.1288,-2.1307,-2.1284,-2.128,-2.1288,-2.1268,-2.1265,-2.1229,-2.1234,-2.1227,-2.1224,-2.1213,-2.12,-2.12,-2.1206,-2.1207,0,0,0,-2.1299,-2.1309,-2.1292,-2.1282,-2.1274,-2.1267,-2.1264,-2.1235,-2.1228,-2.1223,-2.1213,-2.12,-2.12,-2.1206,-2.1207,-2.1241,0,0,0,-2.13,-2.1315,-2.1294,-2.1305,-2.1275,-2.1254,-2.127,-2.1231,-2.1226,-2.1213,-2.12,-2.12,-2.1206,-2.1206,-2.124,-2.1255,0,0,0,-2.1312,-2.1316,-2.1313,-2.1306,-2.1288,-2.1254,-2.1245,-2.1229,-2.122,-2.1201,-2.1199,-2.1205,-2.1206,-2.1238,-2.1252,-2.1263,0,0,0,-2.133,-2.1342,-2.1314,-2.1323,-2.1289,-2.1276,-2.1245,-2.1234,-2.1222,-2.12,-2.1206,-2.1206,-2.1238,-2.125,-2.1262,-2.1278,-2.1286,0,0,-2.1356,-2.1346,-2.135,-2.1324,-2.1322,-2.1281,-2.1284,-2.1253,-2.1232,-2.1216,-2.1216,-2.124,-2.1252,-2.1263,-2.1322,-2.1328,0,0,0,-2.1365,-2.1369,-2.1364,-2.1354,-2.1333,-2.1315,-2.1283,-2.1272,-2.1258,-2.1228,-2.1246,-2.1252,-2.1258,-2.1265,-2.127,-2.1275,-2.121,-2.121,-2.121,-2.1429,-2.1405,-2.1411,-2.1382,-2.1373,-2.134,-2.133,-2.131,-2.1285,-2.129,-2.1285,-2.1324,-2.1332,-2.1336,-2.1341,-2.129,-2.129,-2.1291,-2.1291,-2.1467,-2.1469,-2.1439,-2.1434,-2.1408,-2.1403,-2.1372,-2.1356,-2.1348,-2.1325,-2.1329,-2.1307,-2.1345,-2.1348,-2.1293,-2.1293,-2.1292,-2.1292,-2.1292,-2.1507,-2.1504,-2.1492,-2.1477,-2.1468,-2.1437,-2.1431,-2.1406,-2.1383,-2.1387,-2.138,-2.138,-2.1377,-2.1385,-2.1385,-2.1386,-2.1386,-2.1386,-2.1386,-2.1555,-2.154,-2.1539,-2.1519,-2.151,-2.1496,-2.1465,-2.1455,-2.1439,-2.1421,-2.1421,-2.1398,-2.1353,-2.1343,-2.1388,-2.1388,-2.1387,-2.1387,-2.1387,-2.1604,-2.1589,-2.1588,-2.158,-2.1555,-2.1549,-2.1518,-2.1502,-2.149,-2.1489,-2.1465,-2.1435,-2.1422,-2.1418,-2.141,-2.1469,-2.1469,-2.1469,-2.1469,-2.1639,-2.1631,-2.1625,-2.1614,-2.1601,-2.1573,-2.1573,-2.155,-2.1522,-2.1514,-2.1501,-2.1488,-2.1484,-2.1474,-2.1468,-2.146,-2.1531,-2.1531,-2.1531,-2.1668,-2.1658,-2.1663,-2.1638,-2.1617,-2.16,-2.16,-2.1589,-2.1554,-2.1533,-2.1507,-2.1505,-2.1482,-2.1476,-2.1455,-2.1447,-2.1431,0,0]},{"header":{"parameterUnit":"m.s-1","parameterCategory":1,"la1":30.2992,"la2":30.254,"lo1":-89.0895,"lo2":-89.0443,"dy":0.0025,"dx":0.0025,"nx":19,"ny":19,"refTime":"2026-04-26T09:00:00:Z","depth":0,"parameterNumber":3,"parameterNumberName":"V-component_of_WINDS"},"data":[0,0,0,3.4435,3.4433,3.4304,3.4303,3.4155,3.4154,0,0,0,0,0,0,0,0,0,0,0,3.4488,3.4487,3.4436,3.4433,3.4304,3.4303,3.4155,3.4154,0,0,0,0,0,0,0,0,0,0,0,3.4488,3.4487,3.4487,3.4432,3.4304,3.4303,3.4156,3.4246,0,0,0,0,0,0,0,0,0,0,3.4368,3.4431,3.4488,3.4487,3.4432,3.4304,3.4303,3.425,3.424,3.4223,0,3.4214,0,3.4182,3.4146,3.4145,0,0,0,3.4421,3.4439,3.4392,3.4487,3.4431,3.4304,3.4359,3.4244,3.4234,3.421,3.4212,3.4205,3.418,3.4145,3.4144,3.4094,3.4094,0,0,3.4428,3.4471,3.44,3.4386,3.4412,3.4363,3.4355,3.4237,3.424,3.4211,3.4202,3.4178,3.4144,3.4143,3.4094,3.4094,0,0,0,3.4457,3.4476,3.4432,3.4393,3.4369,3.4359,3.435,3.4245,3.4228,3.42,3.4176,3.4143,3.4142,3.4093,3.4094,3.4154,0,0,0,3.446,3.4493,3.4436,3.446,3.4371,3.4306,3.4361,3.4236,3.4221,3.4177,3.4143,3.4141,3.4093,3.4093,3.4152,3.4174,0,0,0,3.4491,3.4496,3.4483,3.4463,3.441,3.4307,3.4282,3.4232,3.4207,3.4145,3.414,3.4092,3.4093,3.415,3.417,3.4176,0,0,0,3.4535,3.4534,3.4485,3.4474,3.4411,3.4347,3.4282,3.4231,3.4185,3.4143,3.4093,3.4094,3.4149,3.4168,3.4174,3.4188,3.4198,0,0,3.4557,3.4538,3.4529,3.4481,3.4438,3.4363,3.4327,3.4242,3.4193,3.4129,3.4127,3.4153,3.417,3.4175,3.4241,3.425,0,0,0,3.455,3.4544,3.4524,3.4486,3.4425,3.4374,3.4291,3.426,3.4204,3.4171,3.4154,3.4163,3.4164,3.4169,3.4176,3.4175,3.4098,3.4098,3.4098,3.464,3.4586,3.4567,3.4498,3.4461,3.438,3.4344,3.4288,3.4237,3.4235,3.4214,3.4262,3.4269,3.4274,3.4274,3.4218,3.4218,3.4218,3.4218,3.4668,3.4651,3.4593,3.4554,3.4495,3.446,3.4382,3.4349,3.4306,3.4271,3.4269,3.4235,3.4286,3.4282,3.4222,3.4222,3.4221,3.4221,3.422,3.472,3.4703,3.467,3.4613,3.4575,3.4503,3.4468,3.4414,3.4362,3.436,3.4334,3.4333,3.4325,3.4352,3.4352,3.4353,3.4353,3.4353,3.4353,3.4788,3.4749,3.4728,3.4669,3.464,3.4594,3.4515,3.4483,3.4434,3.4397,3.4397,3.4349,3.4302,3.4292,3.4355,3.4355,3.4354,3.4354,3.4354,3.4835,3.4818,3.4785,3.4757,3.4685,3.4652,3.4586,3.4528,3.4493,3.4478,3.4432,3.4406,3.438,3.4374,3.4365,3.4444,3.4444,3.4444,3.4444,3.4879,3.4864,3.4821,3.4781,3.4734,3.4673,3.4638,3.4578,3.4512,3.4487,3.4469,3.4452,3.4449,3.4425,3.4417,3.4408,3.4496,3.4496,3.4496,3.4906,3.4885,3.4866,3.4807,3.4747,3.4697,3.4663,3.4616,3.4537,3.4497,3.4467,3.4465,3.4438,3.4432,3.4389,3.4379,3.436,0,0]}]]